Northfield, Minnesota, United States (55057)
Lat: 44.46N, Lon: 93.16W
Wx Zone: MNZ077
Local Info
Past Weather Observations for Today

NOTE: This archive is for the closest National Weather Service station to Northfield. Information may differ from the station used for current weather conditions.

Click here for Long-term Archive

Time Weather Temperature Dewpoint Humidity Pressure Winds Precip Visibility
07:55
Clear
39°F / 4°C 30°F / -1°C 70% 29.95 in
(1014 mb)
SSE 4.6 mph
(SSE 7 kph)
- 10SM
07:34
Partly Cloudy
37°F / 3°C 30°F / -1°C 75% 29.98 in
(1015 mb)
SW 5.8 mph
(SW 9 kph)
- 10SM
07:14
Mostly Cloudy
37°F / 3°C 28°F / -2°C 70% 29.98 in
(1015 mb)
SSE 3.5 mph
(SSE 6 kph)
- 10SM
06:55
Overcast
36°F / 2°C 30°F / -1°C 81% 29.98 in
(1015 mb)
SSE 3.5 mph
(SSE 6 kph)
- 10SM
06:34
Partly Cloudy
34°F / 1°C 28°F / -2°C 81% 29.98 in
(1015 mb)
SSE 3.5 mph
(SSE 6 kph)
- 10SM
06:14
Partly Cloudy
34°F / 1°C 28°F / -2°C 81% 29.98 in
(1015 mb)
SW 5.8 mph
(SW 9 kph)
- 10SM
05:54
Mostly Cloudy
34°F / 1°C 28°F / -2°C 81% 29.98 in
(1015 mb)
SW 4.6 mph
(SW 7 kph)
- 10SM
05:34
Mostly Cloudy
34°F / 1°C 28°F / -2°C 81% 29.98 in
(1015 mb)
SW 4.6 mph
(SW 7 kph)
- 10SM
05:14
Clear
32°F / 0°C 28°F / -2°C 87% 29.98 in
(1015 mb)
SW 4.6 mph
(SW 7 kph)
- 10SM
04:54
Clear
34°F / 1°C 27°F / -3°C 75% 29.98 in
(1015 mb)
SW 5.8 mph
(SW 9 kph)
- 10SM
04:34
Clear
36°F / 2°C 28°F / -2°C 75% 29.95 in
(1014 mb)
SSE 4.6 mph
(SSE 7 kph)
- 10SM
04:14
Clear
37°F / 3°C 28°F / -2°C 70% 29.95 in
(1014 mb)
SSE 4.6 mph
(SSE 7 kph)
- 10SM
03:54
Clear
37°F / 3°C 28°F / -2°C 70% 29.95 in
(1014 mb)
SSE 5.8 mph
(SSE 9 kph)
- 10SM
03:34
Partly Cloudy
36°F / 2°C 28°F / -2°C 75% 29.95 in
(1014 mb)
SSE 4.6 mph
(SSE 7 kph)
- 10SM
03:14
Partly Cloudy
36°F / 2°C 28°F / -2°C 75% 29.95 in
(1014 mb)
SSE 5.8 mph
(SSE 9 kph)
- 10SM
02:54
Partly Cloudy
36°F / 2°C 30°F / -1°C 81% 29.95 in
(1014 mb)
SSE 4.6 mph
(SSE 7 kph)
- 10SM
02:34
Mostly Cloudy
37°F / 3°C 30°F / -1°C 75% 29.95 in
(1014 mb)
SSE 5.8 mph
(SSE 9 kph)
- 10SM
02:15
Mostly Cloudy
39°F / 4°C 30°F / -1°C 70% 29.98 in
(1015 mb)
SW 6.9 mph
(SW 11 kph)
- 10SM
01:54
Overcast
37°F / 3°C 30°F / -1°C 75% 29.98 in
(1015 mb)
SSE 4.6 mph
(SSE 7 kph)
- 10SM
01:34
Mostly Cloudy
39°F / 4°C 30°F / -1°C 70% 29.98 in
(1015 mb)
SSE 4.6 mph
(SSE 7 kph)
- 10SM
01:15
Overcast
39°F / 4°C 30°F / -1°C 70% 29.98 in
(1015 mb)
S 4.6 mph
(S 7 kph)
- 10SM
00:54
Mostly Cloudy
39°F / 4°C 30°F / -1°C 70% 29.98 in
(1015 mb)
SW 3.5 mph
(SW 6 kph)
- 10SM
00:34
Mostly Cloudy
41°F / 5°C 30°F / -1°C 66% 29.98 in
(1015 mb)
SSW 6.9 mph
(SSW 11 kph)
- 10SM
00:14
Overcast
41°F / 5°C 30°F / -1°C 66% 29.98 in
(1015 mb)
SSW 6.9 mph
(SSW 11 kph)
- 10SM
Time Weather Temperature Dewpoint Humidity Pressure Winds Precip Visibility


Weather for websites

WeatherForYou.com, LLC is not responsible for any damages or problems caused by this service. Current weather conditions are obtained from the closest station including government and personal stations which may have varying degrees of accuracy. Weather forecasts are derived from the NOAA NDFD. Like all things, this site belongs to Jesus Christ... He just trusts me to maintain it. If you have any questions or comments email webmaster@weatherforyou.com

Copyright © 2015, WeatherForYou.com LLC. All rights reserved.